This is the latest recevied weather packets stored in our database for station/object PA3CPS. If no packets are shown the sender has not sent any weather packets the latest 10 day(s).
| Time | Temp. | Humidity | Pressure | Rain* | Wind** | Luminosity | Snow |
|---|---|---|---|---|---|---|---|
| 1778075972 | 11.67° C | 69% | 1008.9 hPa | 0 mm | - | 139 W/m² | - |
| 1778075675 | 11.67° C | 71% | 1009.1 hPa | 0 mm | - | 139 W/m² | - |
| 1778075371 | 11.67° C | 72% | 1009 hPa | 0 mm | - | 169 W/m² | - |
| 1778075070 | 11.67° C | 72% | 1009 hPa | 0 mm | - | 193 W/m² | - |
| 1778074768 | 11.67° C | 72% | 1009 hPa | 0 mm | - | 199 W/m² | - |
| 1778074467 | 11.67° C | 73% | 1009 hPa | 0 mm | - | 200 W/m² | - |
| 1778074165 | 11.67° C | 74% | 1009 hPa | 0 mm | - | 207 W/m² | - |
| 1778073863 | 11.67° C | 75% | 1008.8 hPa | 0 mm | - | 218 W/m² | - |
| 1778073561 | 11.67° C | 75% | 1008.8 hPa | 0 mm | - | 229 W/m² | - |
| 1778073258 | 11.11° C | 75% | 1008.9 hPa | 0 mm | - | 241 W/m² | - |
| 1778072959 | 11.11° C | 75% | 1009 hPa | 0 mm | - | 234 W/m² | - |
| 1778072656 | 11.11° C | 76% | 1008.9 hPa | 0 mm | - | 264 W/m² | - |
| 1778072356 | 11.11° C | 75% | 1008.8 hPa | 0 mm | - | 269 W/m² | - |
| 1778072053 | 11.11° C | 75% | 1008.8 hPa | 0 mm | - | 225 W/m² | - |
| 1778071751 | 11.11° C | 75% | 1008.9 hPa | 0 mm | - | 214 W/m² | - |
| 1778071447 | 11.11° C | 75% | 1008.8 hPa | 0 mm | - | 218 W/m² | - |
| 1778071146 | 11.11° C | 74% | 1008.8 hPa | 0 mm | - | 214 W/m² | - |
| 1778070845 | 11.11° C | 74% | 1008.8 hPa | 0 mm | - | 202 W/m² | - |
| 1778070544 | 11.11° C | 74% | 1008.7 hPa | 0 mm | - | 199 W/m² | - |
| 1778070243 | 11.11° C | 72% | 1008.7 hPa | 0 mm | - | 197 W/m² | - |
| 1778069943 | 11.11° C | 72% | 1008.6 hPa | 0 mm | - | 183 W/m² | - |
| 1778069643 | 11.11° C | 72% | 1008.6 hPa | 0 mm | - | 185 W/m² | - |
| 1778069342 | 11.11° C | 71% | 1008.5 hPa | 0 mm | - | 186 W/m² | - |
| 1778069038 | 11.11° C | 70% | 1008.5 hPa | 0 mm | - | 202 W/m² | - |
| 1778068739 | 11.11° C | 70% | 1008.4 hPa | 0 mm | - | 179 W/m² | - |
* Rain latest hour (hover to see other rain measurements)
** Current wind speed in m/s (hover to see current wind gust speed)